[[{"header":{"parameterUnit":"m.s-1","parameterCategory":1,"la1":30.2991,"la2":30.254,"lo1":-89.0895,"lo2":-89.0444,"dy":0.0017,"dx":0.0017,"nx":28,"ny":28,"refTime":"2024-12-24T09:00:00:Z","depth":0,"parameterNumber":2,"parameterNumberName":"U-component_of_WINDS"},"data":[0,0,0,0,0,0,0,0,0,0,0,0,0,0,0,0,0,0,0,0,0,0,0,0,0,0,0,0,0,0,0,0,0,0,0,0,0,0,0,0,0,0,0,0,0,0,0,0,0,0,0,0,0,0,0,0,0,0,-5.3561,-5.3561,0,-5.3619,-5.362,-5.3621,-5.3497,-5.3493,-5.3489,-5.3485,-5.3543,-5.3548,-5.3554,0,0,0,0,0,0,0,0,0,0,0,0,0,-5.3342,-5.3346,-5.3561,-5.3561,-5.3562,-5.3619,-5.362,-5.3621,-5.3498,-5.3493,-5.3488,-5.3484,-5.3542,-5.3548,-5.3554,0,0,0,0,0,0,0,0,0,0,0,0,0,-5.3422,-5.3348,-5.3561,-5.3508,-5.3504,-5.3619,-5.362,-5.3621,-5.3499,-5.3493,-5.3487,-5.3481,-5.354,-5.3547,-5.3555,-5.3724,0,0,-5.3579,-5.3583,0,0,0,0,0,0,0,0,-5.3418,-5.343,-5.3515,-5.3512,-5.3507,-5.3545,-5.3564,-5.3655,-5.35,-5.3501,-5.3485,-5.3478,-5.3549,-5.3555,-5.3579,-5.3727,-5.3729,-5.358,-5.3585,-5.3588,-5.359,0,0,0,0,0,0,0,-5.3412,-5.3427,-5.3584,-5.3516,-5.3512,-5.3481,-5.3486,-5.3581,-5.3557,-5.35,-5.3491,-5.35,-5.3545,-5.3572,-5.358,-5.373,-5.358,-5.3587,-5.3592,-5.3595,-5.4018,-5.4025,0,0,0,0,0,0,-5.3414,-5.3423,-5.3582,-5.3585,-5.3447,-5.349,-5.3495,-5.3539,-5.3556,-5.3553,-5.3505,-5.3494,-5.3562,-5.3571,-5.3581,-5.3779,-5.3588,-5.3595,-5.36,-5.4012,-5.402,-5.4027,0,0,0,0,0,0,-5.3409,-5.3429,-5.3579,-5.3502,-5.3519,-5.35,-5.355,-5.3543,-5.3569,-5.356,-5.3555,-5.3537,-5.3557,-5.357,-5.3689,-5.3779,-5.3599,-5.3606,-5.4004,-5.4014,-5.4023,-5.4176,0,0,0,0,0,0,-5.3404,-5.3428,-5.3492,-5.3505,-5.3524,-5.3687,-5.3556,-5.3549,-5.3584,-5.357,-5.3588,-5.3585,-5.3553,-5.3678,-5.3697,-5.3787,-5.3612,-5.3996,-5.4009,-5.402,-5.4162,-5.4189,-5.4213,0,0,0,0,0,-5.3396,-5.3532,-5.3496,-5.3516,-5.3603,-5.3692,-5.3703,-5.3664,-5.3592,-5.3655,-5.3649,-5.3585,-5.3768,-5.3692,-5.3712,-5.3805,-5.399,-5.4005,-5.4019,-5.4151,-5.4184,-5.4212,0,0,0,0,0,0,-5.3529,-5.3533,-5.3492,-5.3636,-5.3665,-5.3671,-5.375,-5.37,-5.3749,-5.3734,-5.3684,-5.3689,-5.3817,-5.3824,-5.3739,-5.3969,-5.3866,-5.3886,-5.396,-5.3991,-5.4015,-5.4009,-5.3619,0,0,0,0,0,-5.3576,-5.3648,-5.3647,-5.3775,-5.3791,-5.3769,-5.3807,-5.3775,-5.3802,-5.3813,-5.3815,-5.3844,-5.3908,-5.395,-5.4008,-5.4165,-5.4166,-5.4239,-5.4264,-5.4285,-5.4301,-5.4383,-5.4414,-5.4075,-5.4075,-5.4075,0,0,-5.3671,-5.3682,-5.3731,-5.3802,-5.382,-5.3896,-5.378,-5.3865,-5.392,-5.3825,-5.3937,-5.3941,-5.397,-5.4108,-5.4169,-5.4117,-5.4396,-5.4303,-5.432,-5.4324,-5.4401,-5.4433,-5.4462,-5.4085,-5.4083,-5.4081,0,0,-5.3883,-5.39,-5.4007,-5.4029,-5.4059,-5.4044,-5.407,-5.4085,-5.4084,-5.4196,-5.4127,-5.4193,-5.4304,-5.4326,-5.4353,-5.4578,-5.452,-5.4599,-5.4728,-5.4809,-5.4835,-5.4859,-5.4937,-5.4965,-5.4616,-5.4617,-5.4617,0,-5.3997,-5.4109,-5.4069,-5.4159,-5.4192,-5.4112,-5.422,-5.4243,-5.429,-5.4315,-5.4257,-5.4395,-5.4409,-5.4551,-5.4606,-5.4631,-5.4658,-5.4594,-5.4835,-5.4858,-5.4879,-5.4953,-5.4983,-5.4626,-5.4625,-5.4624,-5.4623,0,-5.4248,-5.4327,-5.441,-5.4458,-5.4501,-5.46,-5.4574,-5.4623,-5.4589,-5.458,-5.4695,-5.471,-5.477,-5.4802,-5.4769,-5.494,-5.4907,-5.4844,-5.4738,-5.4921,-5.499,-5.5018,-5.4639,-5.4635,-5.4633,-5.463,0,0,-5.4539,-5.4568,-5.4598,-5.4619,-5.4649,-5.4709,-5.4805,-5.4864,-5.4906,-5.4943,-5.5021,-5.5119,-5.506,-5.5091,-5.506,-5.5132,-5.5307,-5.5059,-5.5059,-5.5102,-5.5494,-5.5539,-5.5572,-5.5271,-5.5276,-5.5281,-5.5491,0,-5.4747,-5.4912,-5.488,-5.504,-5.5112,-5.504,-5.5123,-5.515,-5.5146,-5.5206,-5.5201,-5.527,-5.519,-5.5207,-5.5275,-5.5271,-5.5384,-5.5256,-5.5341,-5.5344,-5.5331,-5.5608,-5.5655,-5.5853,-5.5518,-5.5522,-5.5525,0,-5.501,-5.5058,-5.5226,-5.5245,-5.5274,-5.5349,-5.5401,-5.5461,-5.5491,-5.5482,-5.5518,-5.5475,-5.557,-5.5468,-5.5597,-5.5511,-5.5545,-5.5549,-5.5555,-5.5558,-5.5443,-5.5615,-5.5915,-5.5943,-5.5568,-5.5564,-5.5561,0,-5.5203,-5.531,-5.5423,-5.5445,-5.547,-5.5525,-5.5538,-5.5562,-5.56,-5.5647,-5.567,-5.5728,-5.5758,-5.5803,-5.5777,-5.5705,-5.5911,-5.5806,-5.5905,-5.5905,-5.5947,-5.5944,-5.6253,-5.5976,-5.5976,-5.5975,-5.5975,0,-5.5435,-5.554,-5.551,-5.558,-5.5696,-5.5659,-5.5775,-5.5779,-5.5802,-5.5871,-5.5814,-5.588,-5.5843,-5.5906,-5.5887,-5.5996,-5.6011,-5.6006,-5.5999,-5.6009,-5.6009,-5.6026,-5.601,-5.5983,-5.5981,-5.598,-5.5979,0,-5.5667,-5.5652,-5.5771,-5.5787,-5.5793,-5.5878,-5.5891,-5.5956,-5.5949,-5.6037,-5.6056,-5.6045,-5.6117,-5.6096,-5.6174,-5.6161,-5.6298,-5.6276,-5.6288,-5.6281,-5.6379,-5.6369,-5.6707,-5.6748,-5.6449,-5.6452,-5.6454,0,-5.5814,-5.5893,-5.5918,-5.5961,-5.5979,-5.6048,-5.6087,-5.6056,-5.6099,-5.6141,-5.6201,-5.6268,-5.6319,-5.6438,-5.6436,-5.6496,-5.6472,-5.6586,-5.648,-5.6487,-5.6469,-5.6463,-5.647,-5.6606,-5.6609,-5.6612,-5.6614,0,-5.6076,-5.6065,-5.6124,-5.6182,-5.623,-5.6274,-5.6312,-5.635,-5.6321,-5.6373,-5.6446,-5.6487,-5.6567,-5.6634,-5.6689,-5.6702,-5.6653,-5.6649,-5.6674,-5.6683,-5.6685,-5.6682,-5.6342,-5.664,-5.6637,-5.6635,-5.6634,-5.6633,-5.6267,-5.6334,-5.6362,-5.643,-5.6456,-5.6494,-5.6556,-5.6558,-5.6619,-5.6682,-5.6661,-5.6744,-5.6774,-5.6842,-5.6863,-5.6928,-5.6884,-5.6921,-5.693,-5.6939,-5.695,-5.668,-5.6938,-5.6938,-5.6937,-5.6936,-5.6936,0,-5.6522,-5.6538,-5.6602,-5.6657,-5.6711,-5.6664,-5.6705,-5.6752,-5.6827,-5.6859,-5.6912,-5.6997,-5.7062,-5.7068,-5.7129,-5.718,-5.7159,-5.7197,-5.719,-5.7194,-5.6987,-5.6957,-5.7213,-5.7213,-5.7212,-5.7212,-5.7212,-5.7212,-5.6661,-5.6771,-5.6765,-5.6888,-5.6903,-5.6985,-5.7012,-5.7046,-5.7072,-5.7169,-5.7224,-5.7228,-5.7249,-5.7312,-5.737,-5.737,-5.7394,-5.744,-5.7431,-5.7236,-5.7209,-5.7182,-5.7154,-5.7446,-5.7447,-5.7632,-5.7634,-5.7635]},{"header":{"parameterUnit":"m.s-1","parameterCategory":1,"la1":30.2991,"la2":30.254,"lo1":-89.0895,"lo2":-89.0444,"dy":0.0017,"dx":0.0017,"nx":28,"ny":28,"refTime":"2024-12-24T09:00:00:Z","depth":0,"parameterNumber":3,"parameterNumberName":"V-component_of_WINDS"},"data":[0,0,0,0,0,0,0,0,0,0,0,0,0,0,0,0,0,0,0,0,0,0,0,0,0,0,0,0,0,0,0,0,0,0,0,0,0,0,0,0,0,0,0,0,0,0,0,0,0,0,0,0,0,0,0,0,0,0,0.9436,0.9436,0,0.9449,0.9449,0.9449,0.9483,0.9483,0.9484,0.9485,0.9492,0.9492,0.9491,0,0,0,0,0,0,0,0,0,0,0,0,0,0.9435,0.9435,0.9435,0.9436,0.9436,0.9449,0.9449,0.9449,0.9483,0.9483,0.9484,0.9485,0.9492,0.9492,0.9491,0,0,0,0,0,0,0,0,0,0,0,0,0,0.944,0.9435,0.9435,0.9454,0.9456,0.9449,0.9449,0.9449,0.9482,0.9483,0.9485,0.9486,0.9493,0.9492,0.9491,0.9465,0,0,0.9489,0.9489,0,0,0,0,0,0,0,0,0.944,0.944,0.9451,0.9453,0.9455,0.9465,0.9452,0.9454,0.9482,0.9472,0.9485,0.9486,0.9482,0.9482,0.9482,0.9465,0.9466,0.9489,0.9488,0.9488,0.9488,0,0,0,0,0,0,0,0.9439,0.944,0.9441,0.9451,0.9454,0.9461,0.9463,0.9452,0.9471,0.9473,0.9476,0.9477,0.9483,0.9483,0.9483,0.9466,0.9489,0.9488,0.9488,0.9488,0.943,0.9429,0,0,0,0,0,0,0.9437,0.9439,0.944,0.9441,0.945,0.946,0.9462,0.9461,0.9471,0.9474,0.9476,0.9479,0.9483,0.9483,0.9483,0.9454,0.9488,0.9487,0.9487,0.9431,0.943,0.9429,0,0,0,0,0,0,0.9437,0.9437,0.944,0.9441,0.9442,0.9459,0.9457,0.9461,0.946,0.9473,0.9476,0.9473,0.9484,0.9484,0.947,0.9454,0.9487,0.9486,0.9432,0.9431,0.9429,0.9395,0,0,0,0,0,0,0.9437,0.9437,0.9427,0.9441,0.9442,0.9427,0.9456,0.946,0.946,0.9463,0.9471,0.9473,0.9485,0.9471,0.9469,0.9454,0.9486,0.9434,0.9432,0.943,0.9397,0.9392,0.9388,0,0,0,0,0,0.9437,0.9415,0.9427,0.9427,0.9431,0.9427,0.9427,0.9443,0.9458,0.9449,0.9458,0.9473,0.9457,0.9469,0.9468,0.9452,0.9435,0.9432,0.943,0.9399,0.9393,0.9388,0,0,0,0,0,0,0.9397,0.9417,0.943,0.9413,0.9418,0.9432,0.942,0.9436,0.9435,0.9438,0.9457,0.9458,0.9442,0.9446,0.9459,0.9428,0.9448,0.9446,0.9426,0.942,0.9415,0.9414,0.9485,0,0,0,0,0,0.9387,0.9383,0.94,0.9383,0.9386,0.9403,0.9401,0.9414,0.9419,0.9421,0.9429,0.9432,0.9428,0.9424,0.9421,0.9399,0.9401,0.9387,0.9383,0.9379,0.9375,0.9365,0.9359,0.9421,0.9421,0.9421,0,0,0.9364,0.9375,0.9371,0.9376,0.9381,0.9376,0.9404,0.9397,0.9393,0.9419,0.9407,0.9413,0.9418,0.94,0.9393,0.9403,0.9359,0.9376,0.9372,0.9371,0.9361,0.9356,0.935,0.9419,0.9419,0.9419,0,0,0.932,0.9329,0.9316,0.9322,0.9331,0.9344,0.9341,0.9354,0.9359,0.9349,0.9369,0.9364,0.9356,0.9359,0.936,0.9322,0.9335,0.932,0.9294,0.9283,0.9278,0.9274,0.926,0.9255,0.9317,0.9317,0.9317,0,0.929,0.9285,0.9307,0.9299,0.9301,0.9328,0.9315,0.9319,0.9326,0.9326,0.9339,0.9332,0.9337,0.932,0.9312,0.9311,0.9308,0.9318,0.9278,0.9274,0.927,0.9257,0.9252,0.9315,0.9315,0.9315,0.9316,0,0.9248,0.9244,0.9232,0.9242,0.9242,0.9232,0.9251,0.9249,0.9263,0.9273,0.9262,0.927,0.927,0.9268,0.9279,0.9253,0.926,0.9275,0.9295,0.9262,0.925,0.9245,0.9312,0.9313,0.9313,0.9314,0,0,0.9175,0.92,0.9196,0.9201,0.9215,0.9212,0.9203,0.9206,0.9203,0.9208,0.9201,0.9196,0.9211,0.9212,0.9224,0.9216,0.9185,0.9232,0.9232,0.9222,0.9157,0.9145,0.9139,0.9196,0.9195,0.9194,0.9157,0,0.9134,0.9122,0.9143,0.9126,0.9123,0.9151,0.9143,0.9151,0.9161,0.9159,0.917,0.9167,0.9187,0.9188,0.918,0.919,0.9172,0.9194,0.9187,0.9187,0.9184,0.9133,0.9119,0.9083,0.9152,0.9151,0.9151,0,0.9083,0.9089,0.9072,0.909,0.9089,0.9082,0.9087,0.9086,0.9095,0.9103,0.9106,0.9123,0.9115,0.9137,0.9126,0.914,0.914,0.9145,0.9144,0.9142,0.9165,0.9128,0.9072,0.9066,0.9144,0.9144,0.9145,0,0.9032,0.9035,0.9026,0.903,0.905,0.9045,0.9053,0.9064,0.9064,0.9069,0.907,0.9072,0.9073,0.9074,0.9091,0.9105,0.9078,0.9101,0.9083,0.9083,0.9074,0.9074,0.9015,0.9076,0.9076,0.9076,0.9076,0,0.8982,0.897,0.9003,0.8997,0.8985,0.901,0.8997,0.9008,0.9018,0.9014,0.9038,0.9033,0.9057,0.9055,0.9068,0.9057,0.9057,0.9063,0.9066,0.906,0.9059,0.9058,0.906,0.9075,0.9075,0.9075,0.9076,0,0.8921,0.8943,0.8935,0.8957,0.8962,0.8952,0.897,0.8965,0.8979,0.8974,0.8974,0.8995,0.8994,0.9012,0.9013,0.9023,0.9005,0.9013,0.9002,0.9004,0.8986,0.8987,0.8923,0.8916,0.8982,0.8981,0.8981,0,0.8887,0.8879,0.8902,0.8902,0.891,0.891,0.8912,0.8937,0.8938,0.895,0.8943,0.8945,0.8948,0.8945,0.8959,0.8961,0.8969,0.8947,0.8969,0.8963,0.8967,0.8967,0.8966,0.8941,0.894,0.8939,0.8939,0,0.8824,0.8837,0.884,0.8848,0.8851,0.8857,0.8865,0.8864,0.8891,0.8891,0.8892,0.8895,0.8899,0.89,0.8905,0.8912,0.8929,0.8932,0.8928,0.892,0.8914,0.8917,0.8988,0.8933,0.8933,0.8934,0.8934,0.8934,0.8775,0.877,0.8786,0.879,0.8799,0.8807,0.8804,0.882,0.8822,0.8828,0.8843,0.8842,0.8853,0.8863,0.8869,0.8867,0.8878,0.8872,0.887,0.8868,0.8864,0.8917,0.8868,0.8868,0.8869,0.8869,0.8869,0,0.8713,0.8726,0.8729,0.8742,0.8744,0.8765,0.8776,0.8776,0.8775,0.8786,0.8789,0.8791,0.8793,0.881,0.8814,0.8809,0.8817,0.8809,0.8809,0.881,0.8855,0.8858,0.8803,0.8803,0.8803,0.8803,0.8803,0.8803,0.8681,0.8674,0.8689,0.8687,0.87,0.8701,0.8705,0.8713,0.8721,0.8723,0.8726,0.8738,0.8751,0.8757,0.876,0.8764,0.8764,0.8753,0.876,0.8801,0.8807,0.8813,0.8816,0.8753,0.8753,0.8716,0.8715,0.8715]}]]